Location: Stull Observatory
(42.2506°N, 77.7903°W)
Time: 18:07:46
(UTC-04:00)

Okean O Rocket - Visible Passes

Search period start: 28 May 2016 00:00
Search period end: 07 June 2016 00:00
Orbit: 624 x 645 km, 98.1° (Epoch: 27 May)

Date Brightness Start Highest point End Pass type
(mag) Time Alt. Az. Time Alt. Az. Time Alt. Az.
28 May 3.1 04:05:30 10° NNE 04:09:32 34° E 04:13:32 10° SSE visible
29 May 2.2 04:26:59 10° NNE 04:31:23 58° E 04:35:42 10° S visible
30 May 1.6 04:48:42 10° N 04:53:09 82° WNW 04:57:32 10° SSW visible
31 May 4.1 03:35:27 10° NE 03:38:13 16° E 03:40:57 10° SE visible
01 Jun 3.5 03:56:24 10° NE 04:00:09 27° E 04:03:53 10° SSE visible
02 Jun 2.6 04:17:46 10° NNE 04:22:02 45° E 04:26:14 10° S visible
03 Jun 1.7 04:39:24 10° NNE 04:43:50 79° ESE 04:48:12 10° S visible
04 Jun 4.3 03:26:50 10° ENE 03:28:47 13° E 03:30:44 10° ESE visible
04 Jun 1.8 05:01:12 10° N 05:05:34 60° WNW 05:09:52 10° SSW visible
05 Jun 3.8 03:47:22 10° NE 03:50:45 21° E 03:54:06 10° SE visible
06 Jun 3.0 04:08:35 10° NNE 04:12:40 36° E 04:16:40 10° SSE visible
